Detroit, MI

12:03 AM EST on February 07, 2016 (GMT -0500)
Detroit Metro Wayne County

Weather History for KDTW - July, 2013

Change the Weather History Date:

Friday, July 19, 2013

  Actual Average Record
Temperature  
Mean Temperature 84 °F 74 °F  
Max Temperature 95 °F 84 °F 100 °F (1946)
Min Temperature 73 °F 64 °F 48 °F (1984)
Degree Days  
Heating Degree Days 0 0  
Month to date heating degree days 0 0  
Since 1 June heating degree days 23 35  
Since 1 July heating degree days 0 0  
Cooling Degree Days 19 9  
Month to date cooling degree days 230 168  
Year to date cooling degree days 503 383  
Since 1 June cooling degree days 400 335  
Growing Degree Days 36 (Base 50)    
Moisture  
Dew Point 72 °F    
Average Humidity 61    
Maximum Humidity 79    
Minimum Humidity 43    
Precipitation  
Precipitation 0.02 in 0.11 in 2.61 in (1982)
Month to date precipitation 3.01 1.98  
Year to date precipitation 23.87 18.04  
Snow  
Snow 0.00 in 0.00 in 0.00 in ()
Month to date snowfall 0.0 0.0  
Since 1 June snowfall 0.0 0.0  
Since 1 July snowfall 0.0 0.0  
Snow Depth 0.00 in    
Sea Level Pressure  
Sea Level Pressure 29.84 in    
Wind  
Wind Speed 16 mph (SSW)    
Max Wind Speed 33 mph    
Max Gust Speed 39 mph    
Visibility 10 miles    
Events Thunderstorm    
T = Trace of Precipitation, MM = Missing Value Source: NWS Daily Summary

Daily Weather History Graph

Daily Weather History Graph

Search for Another Location

Airport or City:

Trip Planner

Search our weather history database for the weather conditions in past years. The results will help you decide how hot, cold, wet, or windy it might be!

Date:

Astronomy

Jul. 19, 2013 Rise Set
Actual Time 6:14 AM EDT 9:04 PM EDT
Civil Twilight 5:41 AM EDT 9:37 PM EDT
Nautical Twilight 4:59 AM EDT 10:19 PM EDT
Astronomical Twilight 4:10 AM EDT 11:07 PM EDT
Moon 6:06 PM EDT (7/19) 2:54 AM EDT (7/19)
Length of Visible Light 15h 56m
Length of Day
14h 50m
Waxing Gibbous, 86% of the Moon is Illuminated
Jul 19
Waxing Gibbous
Jul 22
Full
Jul 29
Last Quarter
Aug 6
New
Aug 14
First Quarter

Hourly Weather History & Observations

Time (EDT) Temp. Heat Index Dew Point Humidity Pressure Visibility Wind Dir Wind Speed Gust Speed Precip Events Conditions
12:53 AM 82.0 °F 87.4 °F 73.0 °F 74% 29.98 in 10.0 mi SSW 10.4 mph - N/A   Partly Cloudy
1:53 AM 81.0 °F 85.8 °F 73.0 °F 77% 29.96 in 10.0 mi SSW 10.4 mph - N/A   Clear
2:53 AM 80.1 °F 83.8 °F 72.0 °F 76% 29.94 in 10.0 mi SSW 11.5 mph - N/A   Clear
3:53 AM 80.1 °F 83.8 °F 72.0 °F 76% 29.92 in 10.0 mi SSW 10.4 mph - N/A   Clear
4:53 AM 79.0 °F - 72.0 °F 79% 29.91 in 10.0 mi SSW 11.5 mph - N/A   Clear
5:53 AM 79.0 °F - 72.0 °F 79% 29.91 in 10.0 mi South 11.5 mph - N/A   Clear
6:53 AM 79.0 °F - 72.0 °F 79% 29.91 in 10.0 mi SSW 11.5 mph - N/A   Clear
7:53 AM 81.0 °F 85.8 °F 73.0 °F 77% 29.91 in 10.0 mi SSW 13.8 mph - N/A   Clear
8:53 AM 82.9 °F 89.4 °F 73.9 °F 74% 29.91 in 10.0 mi SSW 13.8 mph - N/A   Clear
9:53 AM 84.9 °F 92.1 °F 73.9 °F 69% 29.91 in 10.0 mi SSW 16.1 mph - N/A   Clear
10:53 AM 88.0 °F 96.5 °F 73.9 °F 63% 29.90 in 10.0 mi SW 19.6 mph 25.3 mph N/A   Partly Cloudy
11:53 AM 89.1 °F 98.0 °F 73.9 °F 61% 29.88 in 10.0 mi SSW 23.0 mph 28.8 mph N/A   Partly Cloudy
12:53 PM 91.9 °F 100.7 °F 73.0 °F 54% 29.86 in 10.0 mi SW 19.6 mph 27.6 mph N/A   Scattered Clouds
1:53 PM 93.0 °F 100.7 °F 72.0 °F 50% 29.84 in 10.0 mi SSW 24.2 mph 36.8 mph N/A   Scattered Clouds
2:53 PM 93.9 °F 100.8 °F 71.1 °F 47% 29.80 in 10.0 mi SSW 20.7 mph 31.1 mph N/A   Scattered Clouds
3:53 PM 95.0 °F 101.3 °F 70.0 °F 44% 29.78 in 10.0 mi SW 23.0 mph 32.2 mph N/A   Partly Cloudy
4:53 PM 93.9 °F 100.8 °F 71.1 °F 47% 29.77 in 10.0 mi SW 19.6 mph - N/A   Partly Cloudy
5:53 PM 93.0 °F 100.1 °F 71.1 °F 49% 29.75 in 10.0 mi SSW 17.3 mph 23.0 mph N/A   Scattered Clouds
6:53 PM 91.9 °F 97.4 °F 70.0 °F 48% 29.75 in 10.0 mi SSW 18.4 mph - N/A   Scattered Clouds
7:53 PM 90.0 °F 96.4 °F 71.1 °F 54% 29.75 in 10.0 mi SSW 13.8 mph - N/A   Scattered Clouds
8:53 PM 78.1 °F - 69.1 °F 74% 29.76 in 10.0 mi Variable 3.5 mph - 0.00 in   Mostly Cloudy
9:18 PM 80.6 °F 83.9 °F 69.8 °F 70% 29.77 in 10.0 mi South 10.4 mph - N/A Thunderstorm Thunderstorm
9:44 PM 78.8 °F - 71.6 °F 78% 29.77 in 10.0 mi South 11.5 mph - N/A   Mostly Cloudy
9:53 PM 81.0 °F 84.9 °F 71.1 °F 72% 29.76 in 10.0 mi SW 19.6 mph 27.6 mph N/A   Mostly Cloudy
10:53 PM 78.1 °F - 70.0 °F 76% 29.74 in 10.0 mi SW 10.4 mph - N/A   Mostly Cloudy
11:53 PM 78.1 °F - 72.0 °F 81% 29.74 in 10.0 mi South 12.7 mph - N/A   Mostly Cloudy